Regional Weather Roundup
Issued by NWS

Home | Current Version | Previous Version | Text Only | Print | Product List | Glossary On
Versions: 1 2 3 4 5 6 7 8 9 10 11 12 13 14 15 16 17 18 19 20 21 22 23 24 25 26 27 28 29 30 31 32 33 34 35 36 37 38 39 40 41 42 43 44 45 46 47 48 49 50
000
ASUS45 KSLC 271210
RWRUT

UTAH REGIONAL WEATHER ROUNDUP
NATIONAL WEATHER SERVICE SALT LAKE CITY UT
600 AM MDT TUE SEP 27 2016

UTZ001>011-023>025-271300-

NORTHERN UTAH

CITY           SKY/WX    TMP DP  RH WIND       PRES   REMARKS
BRIGHAM CITY     N/A     47  45  91 CALM      30.24R
HILL AFB       CLEAR     52  42  67 SE16G24   30.24S
LOGAN          CLEAR     42  40  92 CALM      30.24F
OGDEN          CLEAR     52  43  71 S8        30.23R
PROVO AIRPORT  CLEAR     49  42  77 S5        30.26R
SALT LAKE CITY PTCLDY    53  46  77 SE6       30.22F
VERNAL         CLOUDY    42  40  92 W5        30.31R
WENDOVER       PTCLDY    50  43  76 NW5       30.23S
HEBER CITY     CLEAR     36  36 100 CALM      30.31S
WEST JORDAN    CLEAR     52  44  76 SW3       30.25S

$$

UTZ012>022-026-027-271300-

SOUTHERN/CENTRAL UTAH

CITY           SKY/WX    TMP DP  RH WIND       PRES   REMARKS
BLANDING       CLEAR     48  33  55 N3        30.38S
BRYCE CANYON   PTCLDY    35  30  82 W8        30.39S WCI  29
CEDAR CITY     PTCLDY    48  36  63 CALM      30.26F
DELTA          CLEAR     45  41  87 S6        30.24F
MILFORD        CLEAR     43  35  73 S6        30.25S
MOAB/CYNLANDS  CLEAR     49  37  63 CALM      30.23R
PRICE          CLEAR     47  38  71 NE6       30.29S
ST GEORGE      SUNNY     61  36  39 E5        30.14R

$$

REGIONAL REPORTS     COLORADO/ARIZONA

CITY           SKY/WX    TMP DP  RH WIND       PRES   REMARKS
CRAIG, CO      CLOUDY    32  29  88 CALM      30.36S
GRAND JUNCTION CLEAR     50  39  66 SE5       30.27R
RIFLE          CLOUDY    42  38  85 SE5       30.33R
MONTROSE       CLOUDY    43  36  76 SE7       30.34S
CORTEZ         CLEAR     37  34  89 CALM      30.32S
PAGE, AZ       CLEAR     57  36  45 SE3       30.20S
GRAND CANYON   CLEAR     42  34  73 CALM      30.30S
KINGMAN        PTCLDY    58  32  37 E10       30.09R
FLAGSTAFF      MOCLDY    48  36  63 E5        30.30S

$$

REGIONAL REPORTS    NEVADA/IDAHO/WYOMING

CITY           SKY/WX    TMP DP  RH WIND       PRES   REMARKS
LAS VEGAS, NV  PTCLDY    70  31  23 W8        30.01S
ELY            PTCLDY    36  30  79 S8        30.31F WCI  30
ELKO           CLEAR     47  39  74 E3        30.24R
POCATELLO, ID  CLOUDY    41  39  93 CALM      30.24S
BURLEY         CLEAR     42  41  96 NE3       30.19S
EVANSTON, WY   CLOUDY    44  33  65 SE6       30.36S
ROCK SPRINGS   CLOUDY    43  39  86 S3        30.35S

$$



USA.gov is the U.S. government's official web portal to all federal, state and local government web resources and services.